AirNav   Air Wisconsin pilot careers
 
 1245 users online  

T23 Albany Municipal Airport
Albany, Texas, USA

GOING TO ALBANY?


FAA INFORMATION EFFECTIVE 11 OCTOBER 2018

Location

FAA Identifier: T23
Lat/Long: 32-43-17.0000N / 099-16-03.3000W
32-43.283333N / 099-16.055000W
32.7213889 / -99.2675833
(estimated)
Elevation: 1414.8 ft. / 431.2 m (surveyed)
Variation: 05E (2015)
From city: 2 miles E of ALBANY, TX
Time zone: UTC -5 (UTC -6 during Standard Time)
Zip code: 76430

Airport Operations

Airport use: Open to the public
Activation date: 07/1985
Control tower: no
ARTCC: FORT WORTH CENTER
FSS: FORT WORTH FLIGHT SERVICE STATION
NOTAMs facility: FTW (NOTAM-D service available)
Attendance: IREG
Wind indicator: lighted
Segmented circle: yes
Lights: MIRL RY 17/35 PRESET LOW INTST; TO INCR INTST AND ACTVT PAPI RY 17 & 35 - 123.5.
Beacon: white-green (lighted land airport)
Operates sunset to sunrise.

Airport Communications

CTAF: 122.9
ABILENE APPROACH: 125.0
ABILENE DEPARTURE: 125.0
WX AWOS-3 at BKD (19 nm E): 120.175 (254-559-5525)

Nearby radio navigation aids

VOR radial/distance  VOR name  Freq  Var
ABIr054/33.4ABILENE VORTAC113.7010E

Airport Services

Fuel available: 100LL JET-A
100LL AND JET A AVBL 24 HRS SELF SERVE.
Parking: tiedowns

Runway Information

Runway 17/35

Dimensions: 5000 x 75 ft. / 1524 x 23 m
Surface: asphalt, in excellent condition
Weight bearing capacity: 
Single wheel: 30.0
Runway edge lights: medium intensity
RUNWAY 17  RUNWAY 35
Latitude: 32-43.694867N32-42.870675N
Longitude: 099-16.068915W099-16.040798W
Elevation: 1386.0 ft.1412.4 ft.
Gradient: 0.5% UP
Traffic pattern: leftright
Runway heading: 173 magnetic, 178 true353 magnetic, 358 true
Markings: nonprecision, in good conditionnonprecision, in good condition
Visual slope indicator: 2-light PAPI on left (3.00 degrees glide path)2-light PAPI on left (3.00 degrees glide path)
Touchdown point: yes, no lightsyes, no lights
Obstructions: 9 ft. road, 507 ft. from runway, 34:1 slope to clear25 ft. pline, marked, 999 ft. from runway, 31:1 slope to clear

Airport Ownership and Management from official FAA records

Ownership: Publicly-owned
Owner: THE CITY OF ALBANY
P O BOX 3248
ALBANY, TX 76430
Phone 325-762-3133
Manager: CHUCK SHEPPARD
P O BOX 3248
ALBANY, TX 76430
Phone (940) 445-1283
AIRPORT MGR.

Airport Operational Statistics

Aircraft based on the field: 8
Single engine airplanes: 7
Helicopters: 1
    
Aircraft operations: avg 40/week *
67% local general aviation
33% transient general aviation
* for 12-month period ending 07 February 2018

Instrument Procedures

NOTE: All procedures below are presented as PDF files. If you need a reader for these files, you should download the free Adobe Reader.

NOT FOR NAVIGATION. Please procure official charts for flight.
FAA instrument procedures published for use from 11 October 2018 at 0901Z to 8 November 2018 at 0900Z.

 
IAPs - Instrument Approach Procedures
RNAV (GPS) RWY 17   download (223KB)
RNAV (GPS) RWY 35   download (233KB)

Other nearby airports with instrument procedures:

KBKD - Stephens County Airport (19 nm E)
KGZN - Gregory M Simmons Memorial Airport (25 nm SE)
F56 - Arledge Field Airport (26 nm NW)
KABI - Abilene Regional Airport (28 nm SW)
KETN - Eastland Municipal Airport (30 nm SE)
 
Loc | Ops | Rwys | IFR | FBO | Links
Com | Nav | Svcs | Stats | Notes


 
Area around T23 (Albany Municipal Airport)
 
Road maps at: MapQuest Bing Google
 
Aerial photo
WARNING: Photo may not be current or correct
Aerial photo of T23 (Albany Municipal Airport)
Do you have a better or more recent aerial photo of Albany Municipal Airport that you would like to share? If so, please send us your photo.

 
Sectional chart

 
Airport distance calculator
Flying to Albany Municipal Airport? Find the distance to fly.

From to T23

Sunrise and sunset
Times for 17-Oct-2018
 Local
(UTC-5)
 Zulu
(UTC)
Morning civil twilight07:1912:19
Sunrise07:4412:44
Sunset19:0100:01
Evening civil twilight19:2600:26

Current date and time
Zulu (UTC)  17-Oct-2018 22:05:24
Local (UTC-5)  17-Oct-2018 17:05:24
 
METAR
KGZN 
25nm SE 
172140Z AUTO 05013G21KT 8SM -RA SCT006 BKN014 BKN021 08/07 A3037 RMK AO2
KABI 
28nm SW 
172152Z 04006KT 6SM -RA BR OVC060 08/07 A3037 RMK AO2 SLP283 P0013 T00780067 $
KETN 
30nm SE 
172155Z AUTO 04011G15KT 7SM RA OVC009 07/06 A3038 RMK AO2 P0014 T00710062
KDYS 
34nm SW 
172156Z 05006KT 9SM -RA SCT011 OVC025 08/04 A3038 RMK AO2A CIG 014 RWY16 SLP284 P0015 T00750041
TAF
KABI 
28nm SW 
171720Z 1718/1818 01008KT 4SM -RA BR OVC018 TEMPO 1718/1722 2SM RA BR OVC008 FM180400 03008KT 6SM -RA BR OVC008
KDYS 
34nm SW 
171140Z 1711/1814 01009KT 9999 OVC020 QNH3030INS BECMG 1714/1715 03009KT 8000 -SHRA OVC015 QNH3029INS BECMG 1717/1718 04012KT 8000 -SHRA OVC020 QNH3028INS TEMPO 1718/1808 BKN008 BECMG 1807/1808 04009KT 9000 BR OVC010 QNH3034INS BECMG 1813/1814 04009KT 9999 NSW OVC020 QNH3038INS TX10/1720Z TN05/1808Z
NOTAMs
Click for the latest NOTAMs
NOTAMs are issued by the DoD/FAA and will open in a separate window not controlled by AirNav.

 

 
 

FBO, Fuel Providers, and Aircraft Ground Support

  
 Business Name 
 
 Contact 
 
 Services / Description 
 
Fuel Prices
 
Comments
  
Albany Municipal Airport 325-762-3133
325-762-0413
[email]
Aviation fuel, Courtesy transportation

More info about Albany Municipal Airport
Avfuel
100LL Jet A
SS $4.29 $3.59 
 Updated 09-Oct-2018
 
   write
SS=Self service
Update Fuel Prices
 

Would you like to see your business listed on this page?

 If your business provides an interesting product or service to pilots, flight crews, aircraft, or users of the Albany Municipal Airport, you should consider listing it here.  To start the listing process, click on the button below
 
Add a business
 

Other Pages about Albany Municipal Airport

Update a link
 
Copyright © AirNav, LLC. All rights reserved. Privacy Policy  Contact